User: anonymous   Login
Location: Caltech
(34.1382°N, 118.1253°W)
Time: 06:13:40
(UTC-07:00)
Language:

DELTA 2 R/B (1) - Orbit

View from above orbital plane
View from above orbital plane
View from above satellite
View from above satellite

Ground track
Ground track

The orbit data is extracted from the following two-line orbital elements,

1 27665U 03005C   17290.22408012 -.00000054  00000-0  12171-4 0  9998
2 27665  39.5753 208.8709 0008449 334.6788 183.0521 14.28456587768380
Epoch (UTC): 17 October 2017 05:22:40
Eccentricity: 0.0008449
inclination: 39.5753°
perigee height: 791 km
apogee height: 803 km
right ascension of ascending node: 208.8709°
argument of perigee: 334.6788°
revolutions per day: 14.28456587
mean anomaly at epoch: 183.0521°
orbit number at epoch: 76838

The dashed part of the orbit path shows where the satellite is in the earth's shadow,  

DLR